格洛纳斯M-712 COSMOS 2413 [GLONASS-M]

导读 | 星芒AI

COSMOS 2413 是一颗俄罗斯 GLONASS-M 导航卫星,于 2007 年 11 月 22 日由质子-M 运载火箭发射。该卫星属于 GLONASS 系统的现代化升级版本,旨在提高全球定位和导航精度。GLONASS-M 卫星具备更长的使用寿命和改进的信号结构,增强了系统的稳定性和覆盖范围。COSMOS 2413 运行在中地球轨道,为俄罗斯及全球用户提供高精度的定位、导航和时间同步服务,是俄罗斯全球导航卫星系统的重要组成部分。

基本信息
目录编号:
28509
目录名称:
COSMOS 2411 (GLONASS)
国际标识:
2004-053B
轨道中心:
EARTH
卫星名称:
格洛纳斯M-712
卫星全名:
格洛纳斯M-712 COSMOS 2413 [GLONASS-M]
卫星状态:
在轨 (已飞行7612 天)
发射日期:
2004-12-26 UTC
国别 :
俄罗斯(独联体) (CIS)
星等 :
--
轨道信息
数据来源 国际轨道数据 AOE轨道数据
星历时间 2025-10-25T17:24:39+0800
3天前
查看轨道信息
2025-10-26T10:00:00+0800
3天前
查看轨道信息
半长轴 25508.448km 25508.384km
偏心率 0.0004323 0.0004315
轨道倾角 64.055° 64.056°
近地点辐角 185.309° 185.034°
升交点赤经 68.475° 68.450°
平近点角 355.288° 165.833°
近地点 19119.285km 19119.242km
远地点 19141.341km 19141.256km
周期 675.750分钟 675.747分钟
每日圈数 2.130967 2.130975
详细信息
平衡模式:
三轴稳定
覆盖范围:
全球
运营商:
列舍特涅夫卫星信息系统
运营商所在国:
俄罗斯
制造商(研发单位):
列舍特涅夫卫星信息系统
制造商所在国:
俄罗斯
使用方式:
暂无
卫星简介
格洛纳斯(GLONASS )是苏联/俄罗斯研制卫星导航系统。标准配置为24颗卫星,其中18颗卫星就能保证该系统为俄罗斯境内用户提供全部服务。该卫星已退役。
2D轨道图
3D轨道图
轨道高度分析图
轨道倾角分析图
轨道综合分析图
查看轨道综合分析图